Stockholm-Vasteras

Airport
ICAO code: 
ESOW
Summary
ICAO Region: 
EUR
Territory: 
Location: 
Västerås,
Elevation: 
21 ft
Coordinates: 
Aerial View: 
59° 35' 21.845" N, 16° 38' 0.961" E
Metar
Observation
ESOW 251320Z 20014KT 9999 SCT040TCU BKN076 17/08 Q1006
Station
Vasteras / Hasslo
Date/Time
2022-05-25 13:20:00
Wind direction
200°
Wind speed
14 kts
Lowest cloud amount
scattered clouds
Temperature
17°C
Dew point
8°C
Humidity
55%
QNH
1006 hPa
Weather condition
n/a

Description

Västerås Airport, now known as Stockholm Västerås Airport and originally as Hässlö Flygplats is located about 5 km east of Västerås city centre and about 110 km west of Stockholm, Sweden. Most movements are general aviation but since attracting some low cost operators, it has been renamed by the airport operator as 'Stockholm Västerås'. It was originally a Swedish Air Force base when it was called 'Hässlö Flygplats'.

Climatology

Humid Continental climate (Köppen climate classification Dfb) - Variable weather patterns and a large seasonal temperature variance. Summers are often warm and humid with frequent thunderstorms and winters can be very cold with frequent snowfall and persistent snow cover.

Runways

Designator Length Width Surface Rops
1/19 2581 50 ASP Yes/Yes
Airport map: 
Aerial View: 

SKYbrary Partners:

Safety knowledge contributed by: